カタログに戻る

STARLINK-5767

運用中通信VLEO
NORAD 55586·PAYLOAD·🇺🇸 United States

打ち上げ Feb 12, 2023 から Cape Canaveral Space Force Station

Loading…

次のパス (今後24時間)

TLE

最新Source: CelesTrak SupGP

元期: Sep 15, 2026, 02:03 UTC

1 55586C 23020T   26258.08590278 -.00034908  00000+0 -12645-2 0  2581
2 55586  43.0029  15.8096 0002288 268.1226 175.8282 15.27589634    19

AllMySatでSTARLINK-5767をリアルタイム追跡

Download on the App Store